Weather History for PARC - January, 2013

Change the Weather History Date:

Friday, January 25, 2013

  Actual Average Record
Temperature  
Mean Temperature -22 °F -  
Max Temperature -13 °F -22 °F 29 °F (1991)
Min Temperature -32 °F -39 °F -64 °F (1989)
Degree Days  
Heating Degree Days 88    
Moisture  
Dew Point -26 °F    
Average Humidity 68    
Maximum Humidity 100    
Minimum Humidity 48    
Precipitation  
Precipitation 0.00 in - - ()
Sea Level Pressure  
Sea Level Pressure 29.75 in    
Wind  
Wind Speed 1 mph (ENE)    
Max Wind Speed 12 mph    
Max Gust Speed 17 mph    
Visibility 10 miles    
Events      
Averages and records for this station are not official NWS values.
T = Trace of Precipitation, MM = Missing Value Source: NWS Daily Summary

Daily Weather History Graph

Daily Weather History Graph

Search for Another Location

Airport or City:

Trip Planner

Search our weather history database for the weather conditions in past years. The results will help you decide how hot, cold, wet, or windy it might be!

Date:

Astronomy

Jan. 25, 2013 Rise Set
Actual Time 10:29 AM AKST 3:21 PM AKST
Civil Twilight 9:08 AM AKST 4:42 PM AKST
Nautical Twilight 7:54 AM AKST 5:56 PM AKST
Astronomical Twilight 6:48 AM AKST 7:02 PM AKST
Moon 2:31 PM AKST (1/25) 9:15 AM AKST (1/25)
Length of Visible Light 7h 33m
Length of Day
4h 52m
Waxing Gibbous, 98% of the Moon is Illuminated
Jan 25
Waxing Gibbous
Jan 26
Full
Feb 3
Last Quarter
Feb 9
New
Feb 17
First Quarter

Hourly Weather History & Observations

Time (AKST) Temp. Windchill Dew Point Humidity Pressure Visibility Wind Dir Wind Speed Gust Speed Precip Events Conditions
12:16 AM -22.0 °F - - N/A% 29.76 in 10.0 mi Calm Calm - N/A   Clear
12:36 AM -20.2 °F - - N/A% 29.76 in 10.0 mi Calm Calm - N/A   Clear
12:56 AM -22.0 °F - - N/A% 29.76 in 10.0 mi Calm Calm - N/A   Clear
1:16 AM -20.2 °F - - N/A% 29.76 in 10.0 mi Calm Calm - N/A   Clear
1:36 AM -22.0 °F - - N/A% 29.76 in 10.0 mi Calm Calm - N/A   Clear
1:56 AM -18.4 °F - - N/A% 29.76 in 10.0 mi Calm Calm - N/A   Clear
2:16 AM -20.2 °F - - N/A% 29.75 in 10.0 mi Calm Calm - N/A   Clear
2:56 AM -18.4 °F - - N/A% 29.75 in 10.0 mi Calm Calm - N/A   Clear
3:16 AM -16.6 °F - -27.4 °F 58% 29.75 in 10.0 mi Calm Calm - N/A   Clear
3:36 AM -16.6 °F - - N/A% 29.75 in 10.0 mi Calm Calm - N/A   Clear
3:56 AM -22.0 °F - - N/A% 29.74 in 10.0 mi Calm Calm - N/A   Clear
4:16 AM -20.2 °F - -23.8 °F 83% 29.74 in 10.0 mi Calm Calm - N/A   Clear
4:36 AM -16.6 °F -26.8 °F - N/A% 29.74 in 10.0 mi North 3.5 mph - N/A   Clear
4:56 AM -16.6 °F - - N/A% 29.74 in 10.0 mi Calm Calm - N/A   Clear
5:16 AM -16.6 °F - -16.6 °F 100% 29.74 in 10.0 mi Calm Calm - N/A   Clear
5:36 AM -16.6 °F -26.8 °F - N/A% 29.74 in 10.0 mi ENE 3.5 mph - N/A   Clear
5:56 AM -16.6 °F -34.4 °F - N/A% 29.74 in 10.0 mi NE 8.1 mph - N/A   Clear
6:16 AM -14.8 °F -33.5 °F - N/A% 29.74 in 10.0 mi ENE 9.2 mph - N/A   Clear
6:36 AM -13.0 °F -33.4 °F - N/A% 29.74 in 10.0 mi ENE 11.5 mph - N/A   Clear
6:56 AM -13.0 °F -31.3 °F - N/A% 29.75 in 10.0 mi ENE 9.2 mph 16.1 mph N/A   Clear
7:16 AM -14.8 °F -34.6 °F - N/A% 29.75 in 10.0 mi ENE 10.4 mph - N/A   Clear
7:36 AM -13.0 °F -33.4 °F - N/A% 29.75 in 10.0 mi ENE 11.5 mph 17.3 mph N/A   Clear
7:56 AM -14.8 °F -34.6 °F - N/A% 29.75 in 10.0 mi NE 10.4 mph - N/A   Clear
8:16 AM -13.0 °F -30.0 °F - N/A% 29.75 in 10.0 mi ENE 8.1 mph - N/A   Clear
8:36 AM -14.8 °F -30.8 °F - N/A% 29.76 in 10.0 mi ENE 6.9 mph - N/A   Clear
8:56 AM -13.0 °F -28.6 °F - N/A% 29.76 in 10.0 mi East 6.9 mph - N/A   Clear
9:16 AM -14.8 °F - - N/A% 29.76 in 10.0 mi Calm Calm - N/A   Clear
9:36 AM -14.8 °F - - N/A% 29.77 in 10.0 mi Calm Calm - N/A   Clear
10:16 AM -14.8 °F - - N/A% 29.77 in 10.0 mi Calm Calm - N/A   Clear
10:36 AM -16.6 °F - - N/A% 29.77 in 10.0 mi Calm Calm - N/A   Clear
10:56 AM -14.8 °F - - N/A% 29.77 in 10.0 mi Calm Calm - N/A   Clear
11:16 AM -16.6 °F - - N/A% 29.77 in 10.0 mi Calm Calm - N/A   Clear
11:36 AM -16.6 °F - - N/A% 29.77 in 10.0 mi Calm Calm - N/A   Clear
11:56 AM -16.6 °F - -27.4 °F 58% 29.78 in 10.0 mi Calm Calm - N/A   Clear
12:16 PM -16.6 °F -26.8 °F - N/A% 29.77 in 10.0 mi SSE 3.5 mph - N/A   Clear
12:36 PM -18.4 °F - - N/A% 29.77 in 10.0 mi Calm Calm - N/A   Mostly Cloudy
12:56 PM -14.8 °F - -27.4 °F 53% 29.77 in 10.0 mi Calm Calm - N/A   Overcast
1:16 PM -14.8 °F -24.8 °F - N/A% 29.77 in 10.0 mi NE 3.5 mph - N/A   Overcast
1:36 PM -20.2 °F - - N/A% 29.77 in 10.0 mi Calm Calm - N/A   Overcast
1:56 PM -14.8 °F - -25.6 °F 58% 29.76 in 10.0 mi Calm Calm - N/A   Overcast
2:16 PM -18.4 °F - - N/A% 29.76 in 10.0 mi Calm Calm - N/A   Overcast
2:36 PM -16.6 °F - - N/A% 29.76 in 10.0 mi Calm Calm - N/A   Overcast
2:56 PM -14.8 °F - -29.2 °F 48% 29.76 in 10.0 mi Calm Calm - N/A   Mostly Cloudy
3:16 PM -14.8 °F - - N/A% 29.75 in 10.0 mi Calm Calm - N/A   Partly Cloudy
3:36 PM -18.4 °F - - N/A% 29.75 in 10.0 mi Calm Calm - N/A   Clear
3:56 PM -16.6 °F - -29.2 °F 53% 29.75 in 10.0 mi Calm Calm - N/A   Clear
4:16 PM -16.6 °F - - N/A% 29.75 in 10.0 mi Calm Calm - N/A   Clear
4:36 PM -16.6 °F - - N/A% 29.75 in 10.0 mi Calm Calm - N/A   Scattered Clouds
4:56 PM -18.4 °F - - N/A% 29.75 in 10.0 mi Calm Calm - N/A   Scattered Clouds
5:16 PM -18.4 °F - - N/A% 29.75 in 10.0 mi Calm Calm - N/A   Mostly Cloudy
5:36 PM -18.4 °F - -25.6 °F 70% 29.74 in 10.0 mi Calm Calm - N/A   Overcast
5:56 PM -20.2 °F - - N/A% 29.74 in 10.0 mi Calm Calm - N/A   Partly Cloudy
6:16 PM -20.2 °F - -27.4 °F 69% 29.74 in 10.0 mi Calm Calm - N/A   Clear
6:36 PM -18.4 °F - - N/A% 29.74 in 10.0 mi Calm Calm - N/A   Clear
6:56 PM -23.8 °F - - N/A% 29.73 in 10.0 mi Calm Calm - N/A   Clear
7:16 PM -25.6 °F - - N/A% 29.73 in 10.0 mi Calm Calm - N/A   Clear
7:36 PM -29.2 °F - - N/A% 29.73 in 10.0 mi Calm Calm - N/A   Clear
7:56 PM -32.8 °F - - N/A% 29.73 in 10.0 mi Calm Calm - N/A   Clear
8:16 PM -29.2 °F - -29.2 °F 100% 29.73 in 10.0 mi Calm Calm - N/A   Clear
8:36 PM -31.0 °F - - N/A% 29.73 in 10.0 mi Calm Calm - N/A   Clear
8:56 PM -27.4 °F - - N/A% 29.72 in 10.0 mi Calm Calm - N/A   Clear
9:16 PM -27.4 °F - - N/A% 29.72 in 10.0 mi Calm Calm - N/A   Clear
9:36 PM -25.6 °F - - N/A% 29.71 in 10.0 mi Calm Calm - N/A   Clear
9:56 PM -23.8 °F - - N/A% 29.71 in 10.0 mi Calm Calm - N/A   Clear
10:16 PM -31.0 °F - - N/A% 29.71 in 10.0 mi Calm Calm - N/A   Clear
10:36 PM -20.2 °F - - N/A% 29.71 in 10.0 mi Calm Calm - N/A   Clear
10:56 PM -22.0 °F - - N/A% 29.70 in 10.0 mi Calm Calm - N/A   Clear
11:16 PM -23.8 °F - - N/A% 29.70 in 10.0 mi Calm Calm - N/A   Clear
11:36 PM -29.2 °F - - N/A% 29.70 in 10.0 mi Calm Calm - N/A   Clear
11:56 PM -20.2 °F - - N/A% 29.70 in 10.0 mi Calm Calm - N/A   Clear